Location: Unspecified
(0.0000°N, 0.0000°E)
Time: 19:19:14
(UTC+00:00)

deb Explorer IX - Pass Details

Date: 27 November 2019
Orbit: 545 x 1105 km, 38.8° (Epoch: 08 December)

Event Time Altitude Azimuth Distance (km) Brightness Sun altitude
Rises 04:42:28 0° 333° (NNW) 3,272 - -15.1°
Exits shadow 04:44:45 - 343° (NNW) 2,520 ? -14.6°
Reaches altitude 10° 04:45:42 10° 350° (N) 2,229 ? -14.4°
Maximum altitude 04:49:27 20° 36° (NE) 1,540 ? -13.5°
Drops below altitude 10° 04:52:51 10° 84° (E) 1,999 ? -12.7°
Sets 04:55:33 0° 102° (ESE) 2,831 ? -12.1°
